一网星座-0118星 (ONEWEB-0118 )

导读

ONEWEB-0118是英国OneWeb低轨卫星星座的组成卫星,于2020年12月18日发射升空。OneWeb星座旨在通过近地轨道卫星群,为全球提供高速互联网接入服务。作为星座组网的一环,该卫星承担着全球覆盖组网的任务,助力OneWeb实现全球互联的目标,同时也可服务未来卫星导航等拓展应用,是英国布局卫星互联网基础设施的重要组成部分。

基本信息
目录编号:
47264
目录名称:
ONEWEB-0118
国际标识:
2020-100G
轨道中心:
EARTH
卫星名称:
一网星座-0118星
卫星全名:
一网星座-0118星 (ONEWEB-0118 )
卫星状态:
在轨 (已飞行2005 天)
发射日期:
2020-12-18 UTC
国别 :
英国 (GB)
星等 :
--
轨道信息
数据来源 国际轨道数据 AOE轨道数据
星历时间 2026-06-15T05:25:20+0800
8小时前
查看轨道信息
2026-06-15T08:00:00+0800
5小时前
查看轨道信息
半长轴 7591.861km 7591.874km
偏心率 0.0002137 0.0001976
轨道倾角 87.895° 87.893°
近地点辐角 92.234° 90.782°
升交点赤经 351.109° 351.087°
平近点角 267.903° 56.531°
近地点 1212.101km 1212.236km
远地点 1215.347km 1215.238km
周期 109.719分钟 109.719分钟
每日圈数 13.124429 13.124395
详细信息
平衡模式:
三轴稳定
覆盖范围:
全球
运营商:
一网卫星公司
运营商所在国:
英国
制造商(研发单位):
一网卫星公司
制造商所在国:
英国
使用方式:
暂无
卫星简介
OneWeb卫星网络由648颗重约125公斤的微型卫星组成,运行在1200公里的轨道上。 每颗卫星都能够提供至少每秒8千兆位的吞吐量,以使用其高吞吐量的Ku频段有效载荷为家庭和移动平台提供互联网接入。该卫星仍在工作。
2D轨道图
3D轨道图
轨道高度分析图
轨道倾角分析图
轨道综合分析图
查看轨道综合分析图